Time,TemperatureF,DewpointF,PressureIn,WindDirection,WindDirectionDegrees,WindSpeedMPH,WindSpeedGustMPH,Humidity,HourlyPrecipIn,Conditions,Clouds,dailyrainin,SoftwareType,DateUTC
2013-08-23 00:01:00,67.6,66.4,30.08,West,260,0.0,1.0,96,0.00,,,0.13,WUHU216DAVISVP2,2013-08-23 04:01:00,
2013-08-23 00:06:00,67.5,66.3,30.08,NNW,343,0.0,1.0,96,0.00,,,0.00,WUHU216DAVISVP2,2013-08-23 04:06:00,
2013-08-23 00:11:00,67.6,66.4,30.09,NNW,343,0.0,1.0,96,0.00,,,0.00,WUHU216DAVISVP2,2013-08-23 04:11:00,
2013-08-23 00:16:00,67.5,66.0,30.09,NW,311,0.0,1.0,95,0.00,,,0.00,WUHU216DAVISVP2,2013-08-23 04:16:00,
2013-08-23 00:21:00,67.4,65.9,30.09,NW,321,0.0,5.0,95,0.00,,,0.00,WUHU216DAVISVP2,2013-08-23 04:21:00,
2013-08-23 00:26:00,67.3,65.8,30.09,NW,311,0.0,5.0,95,0.00,,,0.00,WUHU216DAVISVP2,2013-08-23 04:26:00,
2013-08-23 00:31:00,67.1,65.6,30.09,WNW,293,0.0,5.0,95,0.00,,,0.00,WUHU216DAVISVP2,2013-08-23 04:31:00,
2013-08-23 00:36:00,67.1,65.6,30.09,WNW,300,0.0,5.0,95,0.00,,,0.00,WUHU216DAVISVP2,2013-08-23 04:36:00,
2013-08-23 00:41:00,67.0,65.5,30.09,NW,316,0.0,3.0,95,0.00,,,0.00,WUHU216DAVISVP2,2013-08-23 04:41:00,
2013-08-23 00:46:00,67.0,65.5,30.09,WNW,289,1.0,3.0,95,0.00,,,0.00,WUHU216DAVISVP2,2013-08-23 04:46:00,
2013-08-23 00:51:00,66.9,65.4,30.09,NW,315,0.0,4.0,95,0.00,,,0.00,WUHU216DAVISVP2,2013-08-23 04:51:00,
2013-08-23 00:56:00,66.9,65.4,30.09,WNW,293,1.0,4.0,95,0.00,,,0.00,WUHU216DAVISVP2,2013-08-23 04:56:00,
2013-08-23 01:01:00,66.9,65.4,30.09,WNW,285,0.0,5.0,95,0.00,,,0.00,WUHU216DAVISVP2,2013-08-23 05:01:00,
2013-08-23 01:06:00,66.8,65.3,30.09,NW,311,0.0,5.0,95,0.00,,,0.00,WUHU216DAVISVP2,2013-08-23 05:06:00,
2013-08-23 01:11:00,66.7,65.2,30.09,NW,312,0.0,5.0,95,0.00,,,0.00,WUHU216DAVISVP2,2013-08-23 05:11:00,
2013-08-23 01:16:00,66.4,64.9,30.09,North,356,1.0,5.0,95,0.00,,,0.00,WUHU216DAVISVP2,2013-08-23 05:16:00,
2013-08-23 01:21:00,66.3,64.8,30.09,NNW,347,0.0,2.0,95,0.00,,,0.00,WUHU216DAVISVP2,2013-08-23 05:21:00,
2013-08-23 01:26:00,66.2,64.7,30.09,NNW,333,1.0,3.0,95,0.00,,,0.00,WUHU216DAVISVP2,2013-08-23 05:26:00,
2013-08-23 01:31:00,66.1,64.9,30.09,NNW,336,1.0,3.0,96,0.00,,,0.00,WUHU216DAVISVP2,2013-08-23 05:31:00,
2013-08-23 01:36:00,66.0,64.8,30.09,North,353,1.0,3.0,96,0.00,,,0.00,WUHU216DAVISVP2,2013-08-23 05:36:00,
2013-08-23 01:41:00,65.9,64.7,30.09,NNW,336,0.0,3.0,96,0.00,,,0.00,WUHU216DAVISVP2,2013-08-23 05:41:00,
2013-08-23 01:46:00,65.7,64.5,30.09,NNW,346,0.0,2.0,96,0.00,,,0.00,WUHU216DAVISVP2,2013-08-23 05:46:00,
2013-08-23 01:51:00,65.6,64.4,30.09,North,351,0.0,2.0,96,0.00,,,0.00,WUHU216DAVISVP2,2013-08-23 05:51:00,
2013-08-23 01:56:00,65.6,64.4,30.09,NNE,16,1.0,3.0,96,0.00,,,0.00,WUHU216DAVISVP2,2013-08-23 05:56:00,
2013-08-23 02:01:00,65.6,64.4,30.09,North,351,0.0,3.0,96,0.00,,,0.00,WUHU216DAVISVP2,2013-08-23 06:01:00,
2013-08-23 02:06:00,65.5,64.3,30.09,North,4,0.0,3.0,96,0.00,,,0.00,WUHU216DAVISVP2,2013-08-23 06:06:00,
2013-08-23 02:11:00,65.4,64.2,30.09,NNW,333,0.0,2.0,96,0.00,,,0.00,WUHU216DAVISVP2,2013-08-23 06:11:00,
2013-08-23 02:16:00,65.2,64.0,30.09,North,353,0.0,2.0,96,0.00,,,0.00,WUHU216DAVISVP2,2013-08-23 06:16:00,
2013-08-23 02:21:00,65.1,64.2,30.09,North,356,0.0,2.0,97,0.00,,,0.00,WUHU216DAVISVP2,2013-08-23 06:21:00,
2013-08-23 02:26:00,65.0,64.1,30.09,NNW,346,0.0,1.0,97,0.00,,,0.00,WUHU216DAVISVP2,2013-08-23 06:26:00,
2013-08-23 02:31:00,64.9,64.0,30.09,NW,318,0.0,1.0,97,0.00,,,0.00,WUHU216DAVISVP2,2013-08-23 06:31:00,
2013-08-23 02:36:00,64.7,63.8,30.09,NNE,20,0.0,1.0,97,0.00,,,0.00,WUHU216DAVISVP2,2013-08-23 06:36:00,
2013-08-23 02:41:00,64.7,63.8,30.09,NE,36,0.0,1.0,97,0.00,,,0.00,WUHU216DAVISVP2,2013-08-23 06:41:00,
2013-08-23 02:46:00,64.5,63.6,30.09,NNE,18,0.0,1.0,97,0.00,,,0.00,WUHU216DAVISVP2,2013-08-23 06:46:00,
2013-08-23 02:51:00,64.3,63.4,30.09,NNE,16,0.0,1.0,97,0.00,,,0.00,WUHU216DAVISVP2,2013-08-23 06:51:00,
2013-08-23 02:56:00,64.2,63.3,30.09,NNE,16,0.0,1.0,97,0.00,,,0.00,WUHU216DAVISVP2,2013-08-23 06:56:00,
2013-08-23 03:01:00,64.2,63.3,30.09,NNE,15,0.0,1.0,97,0.00,,,0.00,WUHU216DAVISVP2,2013-08-23 07:01:00,
2013-08-23 03:06:00,64.4,63.5,30.08,NNW,338,0.0,1.0,97,0.00,,,0.00,WUHU216DAVISVP2,2013-08-23 07:06:00,
2013-08-23 03:11:00,64.6,64.0,30.08,North,359,0.0,1.0,98,0.00,,,0.00,WUHU216DAVISVP2,2013-08-23 07:11:00,
2013-08-23 03:16:00,64.9,64.3,30.08,North,11,0.0,1.0,98,0.00,,,0.00,WUHU216DAVISVP2,2013-08-23 07:16:00,
2013-08-23 03:21:00,65.0,64.4,30.08,North,359,0.0,1.0,98,0.00,,,0.00,WUHU216DAVISVP2,2013-08-23 07:21:00,
2013-08-23 03:26:00,65.0,64.4,30.08,North,356,0.0,1.0,98,0.00,,,0.00,WUHU216DAVISVP2,2013-08-23 07:26:00,
2013-08-23 03:31:00,65.2,64.6,30.08,NNE,27,0.0,2.0,98,0.00,,,0.00,WUHU216DAVISVP2,2013-08-23 07:31:00,
2013-08-23 03:36:00,65.4,64.8,30.08,NNW,344,1.0,4.0,98,0.00,,,0.00,WUHU216DAVISVP2,2013-08-23 07:36:00,
2013-08-23 03:41:00,65.5,64.9,30.08,North,360,0.0,4.0,98,0.00,,,0.00,WUHU216DAVISVP2,2013-08-23 07:41:00,
2013-08-23 03:46:00,65.5,64.9,30.08,NNE,23,3.0,6.0,98,0.00,,,0.00,WUHU216DAVISVP2,2013-08-23 07:46:00,
2013-08-23 03:51:00,65.5,64.9,30.08,North,356,1.0,6.0,98,0.00,,,0.00,WUHU216DAVISVP2,2013-08-23 07:51:00,
2013-08-23 03:56:00,65.6,65.0,30.08,NNE,16,1.0,5.0,98,0.00,,,0.00,WUHU216DAVISVP2,2013-08-23 07:56:00,
2013-08-23 04:01:00,65.6,65.0,30.08,NNW,340,0.0,5.0,98,0.00,,,0.00,WUHU216DAVISVP2,2013-08-23 08:01:00,
2013-08-23 04:06:00,65.6,65.0,30.08,North,349,2.0,3.0,98,0.00,,,0.00,WUHU216DAVISVP2,2013-08-23 08:06:00,
2013-08-23 04:11:00,65.7,65.1,30.08,North,351,1.0,3.0,98,0.00,,,0.00,WUHU216DAVISVP2,2013-08-23 08:11:00,
2013-08-23 04:16:00,65.7,65.1,30.08,North,360,0.0,3.0,98,0.00,,,0.00,WUHU216DAVISVP2,2013-08-23 08:16:00,
2013-08-23 04:21:00,65.8,65.2,30.08,NNE,20,1.0,2.0,98,0.00,,,0.00,WUHU216DAVISVP2,2013-08-23 08:21:00,
2013-08-23 04:26:00,65.8,65.2,30.08,North,349,1.0,2.0,98,0.00,,,0.00,WUHU216DAVISVP2,2013-08-23 08:26:00,
2013-08-23 04:31:00,65.8,65.2,30.08,NNW,343,1.0,2.0,98,0.00,,,0.00,WUHU216DAVISVP2,2013-08-23 08:31:00,
2013-08-23 04:36:00,65.8,65.2,30.08,NNW,338,0.0,2.0,98,0.00,,,0.00,WUHU216DAVISVP2,2013-08-23 08:36:00,
2013-08-23 04:41:00,65.8,65.2,30.07,North,11,0.0,3.0,98,0.00,,,0.00,WUHU216DAVISVP2,2013-08-23 08:41:00,
2013-08-23 04:46:00,65.9,65.3,30.08,NNW,340,0.0,5.0,98,0.00,,,0.00,WUHU216DAVISVP2,2013-08-23 08:46:00,
2013-08-23 04:51:00,65.9,65.3,30.07,North,8,0.0,5.0,98,0.00,,,0.00,WUHU216DAVISVP2,2013-08-23 08:51:00,
2013-08-23 04:56:00,65.9,65.3,30.08,North,354,0.0,4.0,98,0.00,,,0.00,WUHU216DAVISVP2,2013-08-23 08:56:00,
2013-08-23 05:01:00,66.0,65.4,30.07,NNE,18,1.0,4.0,98,0.00,,,0.00,WUHU216DAVISVP2,2013-08-23 09:01:00,
2013-08-23 05:06:00,66.0,65.4,30.07,NNE,20,2.0,3.0,98,0.00,,,0.00,WUHU216DAVISVP2,2013-08-23 09:06:00,
2013-08-23 05:11:00,66.0,65.4,30.08,North,11,0.0,3.0,98,0.00,,,0.00,WUHU216DAVISVP2,2013-08-23 09:11:00,
2013-08-23 05:16:00,65.9,65.3,30.08,NNE,18,1.0,3.0,98,0.00,,,0.00,WUHU216DAVISVP2,2013-08-23 09:16:00,
2013-08-23 05:21:00,65.8,65.2,30.08,NNE,22,0.0,3.0,98,0.00,,,0.00,WUHU216DAVISVP2,2013-08-23 09:21:00,
2013-08-23 05:26:00,65.8,65.2,30.08,North,359,0.0,3.0,98,0.00,,,0.00,WUHU216DAVISVP2,2013-08-23 09:26:00,
2013-08-23 05:31:00,65.8,65.2,30.08,North,349,0.0,3.0,98,0.00,,,0.00,WUHU216DAVISVP2,2013-08-23 09:31:00,
2013-08-23 05:36:00,65.8,65.2,30.08,NNW,343,0.0,2.0,98,0.00,,,0.00,WUHU216DAVISVP2,2013-08-23 09:36:00,
2013-08-23 05:41:00,65.8,65.2,30.08,North,359,0.0,2.0,98,0.00,,,0.00,WUHU216DAVISVP2,2013-08-23 09:41:00,
2013-08-23 05:46:00,65.8,65.2,30.08,NNW,336,0.0,2.0,98,0.00,,,0.00,WUHU216DAVISVP2,2013-08-23 09:46:00,
2013-08-23 05:51:00,65.8,65.2,30.08,NW,318,0.0,1.0,98,0.00,,,0.00,WUHU216DAVISVP2,2013-08-23 09:51:00,
2013-08-23 05:56:00,65.8,65.2,30.08,WNW,297,0.0,1.0,98,0.00,,,0.00,WUHU216DAVISVP2,2013-08-23 09:56:00,
2013-08-23 06:01:00,65.8,65.2,30.08,North,359,0.0,1.0,98,0.00,,,0.00,WUHU216DAVISVP2,2013-08-23 10:01:00,
2013-08-23 06:06:00,65.7,65.1,30.08,North,354,0.0,1.0,98,0.00,,,0.00,WUHU216DAVISVP2,2013-08-23 10:06:00,
2013-08-23 06:11:00,65.7,65.1,30.08,NW,325,4.0,7.0,98,0.00,,,0.00,WUHU216DAVISVP2,2013-08-23 10:11:00,
2013-08-23 06:16:00,65.6,65.0,30.08,North,350,0.0,7.0,98,0.00,,,0.00,WUHU216DAVISVP2,2013-08-23 10:16:00,
2013-08-23 06:21:00,65.6,65.0,30.09,NNW,338,1.0,7.0,98,0.00,,,0.00,WUHU216DAVISVP2,2013-08-23 10:21:00,
2013-08-23 06:26:00,65.5,64.9,30.09,North,354,0.0,6.0,98,0.00,,,0.00,WUHU216DAVISVP2,2013-08-23 10:26:00,
2013-08-23 06:31:00,65.5,64.9,30.09,NNE,19,0.0,5.0,98,0.00,,,0.00,WUHU216DAVISVP2,2013-08-23 10:31:00,
2013-08-23 06:36:00,65.5,64.9,30.09,NNW,341,0.0,5.0,98,0.00,,,0.00,WUHU216DAVISVP2,2013-08-23 10:36:00,
2013-08-23 06:41:00,65.4,64.8,30.09,NNW,340,0.0,3.0,98,0.00,,,0.00,WUHU216DAVISVP2,2013-08-23 10:41:00,
2013-08-23 06:46:00,65.4,64.8,30.10,NNW,342,0.0,3.0,98,0.00,,,0.00,WUHU216DAVISVP2,2013-08-23 10:46:00,
2013-08-23 06:51:00,65.2,64.6,30.10,NW,318,0.0,4.0,98,0.00,,,0.00,WUHU216DAVISVP2,2013-08-23 10:51:00,
2013-08-23 06:56:00,65.1,64.5,30.10,NE,34,0.0,4.0,98,0.00,,,0.00,WUHU216DAVISVP2,2013-08-23 10:56:00,
2013-08-23 07:01:00,65.1,64.5,30.10,North,4,0.0,4.0,98,0.00,,,0.00,WUHU216DAVISVP2,2013-08-23 11:01:00,
2013-08-23 07:06:00,65.1,64.5,30.10,NNE,30,1.0,4.0,98,0.00,,,0.00,WUHU216DAVISVP2,2013-08-23 11:06:00,
2013-08-23 07:11:00,65.1,64.5,30.10,NNE,26,0.0,3.0,98,0.00,,,0.00,WUHU216DAVISVP2,2013-08-23 11:11:00,
2013-08-23 07:16:00,65.1,64.5,30.11,NNE,27,0.0,3.0,98,0.00,,,0.00,WUHU216DAVISVP2,2013-08-23 11:16:00,
2013-08-23 07:21:00,65.1,64.5,30.11,NNE,31,0.0,1.0,98,0.00,,,0.00,WUHU216DAVISVP2,2013-08-23 11:21:00,
2013-08-23 07:26:00,65.2,64.6,30.11,NNE,18,0.0,1.0,98,0.00,,,0.00,WUHU216DAVISVP2,2013-08-23 11:26:00,
2013-08-23 07:31:00,65.3,64.7,30.11,North,5,0.0,1.0,98,0.00,,,0.00,WUHU216DAVISVP2,2013-08-23 11:31:00,
2013-08-23 07:36:00,65.4,64.8,30.11,North,6,0.0,1.0,98,0.00,,,0.00,WUHU216DAVISVP2,2013-08-23 11:36:00,
2013-08-23 07:41:00,65.4,64.8,30.12,North,9,0.0,4.0,98,0.00,,,0.00,WUHU216DAVISVP2,2013-08-23 11:41:00,
2013-08-23 07:46:00,65.5,64.9,30.12,NNE,26,0.0,4.0,98,0.00,,,0.00,WUHU216DAVISVP2,2013-08-23 11:46:00,
2013-08-23 07:51:00,65.6,65.0,30.12,NNE,25,0.0,4.0,98,0.00,,,0.00,WUHU216DAVISVP2,2013-08-23 11:51:00,
2013-08-23 07:56:00,65.7,65.1,30.12,NNE,24,0.0,4.0,98,0.00,,,0.00,WUHU216DAVISVP2,2013-08-23 11:56:00,
2013-08-23 08:01:00,65.8,65.2,30.12,NNE,16,0.0,1.0,98,0.00,,,0.00,WUHU216DAVISVP2,2013-08-23 12:01:00,
2013-08-23 08:06:00,65.8,65.2,30.12,NE,50,0.0,2.0,98,0.00,,,0.00,WUHU216DAVISVP2,2013-08-23 12:06:00,
2013-08-23 08:11:00,65.9,65.0,30.12,North,358,1.0,6.0,97,0.00,,,0.00,WUHU216DAVISVP2,2013-08-23 12:11:00,
2013-08-23 08:16:00,66.0,65.1,30.12,NNE,27,0.0,6.0,97,0.00,,,0.00,WUHU216DAVISVP2,2013-08-23 12:16:00,
2013-08-23 08:21:00,66.1,65.2,30.12,NNE,16,0.0,6.0,97,0.00,,,0.00,WUHU216DAVISVP2,2013-08-23 12:21:00,
2013-08-23 08:26:00,66.1,65.2,30.12,NE,43,3.0,6.0,97,0.00,,,0.00,WUHU216DAVISVP2,2013-08-23 12:26:00,
2013-08-23 08:31:00,66.1,64.9,30.13,NNE,26,1.0,7.0,96,0.00,,,0.00,WUHU216DAVISVP2,2013-08-23 12:31:00,
2013-08-23 08:36:00,66.0,64.5,30.13,NE,43,0.0,7.0,95,0.00,,,0.00,WUHU216DAVISVP2,2013-08-23 12:36:00,
2013-08-23 08:41:00,66.2,65.0,30.13,North,8,0.0,7.0,96,0.00,,,0.00,WUHU216DAVISVP2,2013-08-23 12:41:00,
2013-08-23 08:46:00,66.3,65.1,30.13,NNE,24,0.0,7.0,96,0.00,,,0.00,WUHU216DAVISVP2,2013-08-23 12:46:00,
2013-08-23 08:51:00,66.4,64.9,30.13,NNE,18,1.0,6.0,95,0.00,,,0.00,WUHU216DAVISVP2,2013-08-23 12:51:00,
2013-08-23 08:56:00,66.7,65.5,30.13,NNE,19,1.0,5.0,96,0.00,,,0.00,WUHU216DAVISVP2,2013-08-23 12:56:00,
2013-08-23 09:01:00,67.0,65.5,30.13,NE,37,0.0,5.0,95,0.00,,,0.00,WUHU216DAVISVP2,2013-08-23 13:01:00,
2013-08-23 09:06:00,67.2,65.7,30.13,ENE,61,2.0,5.0,95,0.00,,,0.00,WUHU216DAVISVP2,2013-08-23 13:06:00,
2013-08-23 09:11:00,67.1,65.3,30.14,NE,39,0.0,5.0,94,0.00,,,0.00,WUHU216DAVISVP2,2013-08-23 13:11:00,
2013-08-23 09:16:00,67.2,65.4,30.14,NE,43,0.0,5.0,94,0.00,,,0.00,WUHU216DAVISVP2,2013-08-23 13:16:00,
2013-08-23 09:21:00,67.3,65.5,30.14,NNE,16,1.0,5.0,94,0.00,,,0.00,WUHU216DAVISVP2,2013-08-23 13:21:00,
2013-08-23 09:26:00,67.5,65.7,30.14,ENE,58,1.0,5.0,94,0.00,,,0.00,WUHU216DAVISVP2,2013-08-23 13:26:00,
2013-08-23 09:31:00,67.7,65.6,30.14,NE,46,6.0,7.0,93,0.00,,,0.00,WUHU216DAVISVP2,2013-08-23 13:31:00,
2013-08-23 09:36:00,67.6,65.5,30.14,NE,44,2.0,8.0,93,0.00,,,0.00,WUHU216DAVISVP2,2013-08-23 13:36:00,
2013-08-23 09:41:00,67.6,65.5,30.14,NE,46,2.0,8.0,93,0.00,,,0.00,WUHU216DAVISVP2,2013-08-23 13:41:00,
2013-08-23 09:46:00,67.8,65.4,30.14,NE,46,1.0,7.0,92,0.00,,,0.00,WUHU216DAVISVP2,2013-08-23 13:46:00,
2013-08-23 09:51:00,68.1,65.7,30.14,NNE,27,0.0,7.0,92,0.00,,,0.00,WUHU216DAVISVP2,2013-08-23 13:51:00,
2013-08-23 09:56:00,68.6,66.5,30.14,NE,47,0.0,4.0,93,0.00,,,0.00,WUHU216DAVISVP2,2013-08-23 13:56:00,
2013-08-23 10:01:00,68.9,66.1,30.14,East,88,0.0,4.0,91,0.00,,,0.00,WUHU216DAVISVP2,2013-08-23 14:01:00,
2013-08-23 10:06:00,69.0,66.2,30.14,NE,40,1.0,4.0,91,0.00,,,0.00,WUHU216DAVISVP2,2013-08-23 14:06:00,
2013-08-23 10:11:00,68.9,66.1,30.14,NE,40,1.0,4.0,91,0.00,,,0.00,WUHU216DAVISVP2,2013-08-23 14:11:00,
2013-08-23 10:16:00,69.1,66.6,30.14,NNE,15,0.0,4.0,92,0.00,,,0.00,WUHU216DAVISVP2,2013-08-23 14:16:00,
2013-08-23 10:21:00,69.3,66.6,30.14,NNE,15,1.0,3.0,91,0.00,,,0.00,WUHU216DAVISVP2,2013-08-23 14:21:00,
2013-08-23 10:26:00,69.7,67.0,30.15,NE,34,1.0,3.0,91,0.00,,,0.00,WUHU216DAVISVP2,2013-08-23 14:26:00,
2013-08-23 10:31:00,70.2,67.1,30.15,ENE,77,1.0,3.0,90,0.00,,,0.00,WUHU216DAVISVP2,2013-08-23 14:31:00,
2013-08-23 10:36:00,70.4,67.3,30.15,NE,41,0.0,3.0,90,0.00,,,0.00,WUHU216DAVISVP2,2013-08-23 14:36:00,
2013-08-23 10:41:00,70.6,67.2,30.15,NE,37,0.0,3.0,89,0.00,,,0.00,WUHU216DAVISVP2,2013-08-23 14:41:00,
2013-08-23 10:46:00,71.4,68.3,30.15,ESE,110,0.0,3.0,90,0.00,,,0.00,WUHU216DAVISVP2,2013-08-23 14:46:00,
2013-08-23 10:51:00,71.8,68.1,30.15,ENE,68,0.0,3.0,88,0.00,,,0.00,WUHU216DAVISVP2,2013-08-23 14:51:00,
2013-08-23 10:56:00,72.4,69.0,30.15,NE,54,0.0,2.0,89,0.00,,,0.00,WUHU216DAVISVP2,2013-08-23 14:56:00,
2013-08-23 11:01:00,72.4,68.0,30.15,NE,37,1.0,4.0,86,0.00,,,0.00,WUHU216DAVISVP2,2013-08-23 15:01:00,
2013-08-23 11:06:00,72.7,68.3,30.15,NE,43,0.0,4.0,86,0.00,,,0.00,WUHU216DAVISVP2,2013-08-23 15:06:00,
2013-08-23 11:11:00,72.9,68.5,30.15,ENE,61,1.0,3.0,86,0.00,,,0.00,WUHU216DAVISVP2,2013-08-23 15:11:00,
2013-08-23 11:16:00,73.2,68.5,30.15,NE,50,1.0,4.0,85,0.00,,,0.00,WUHU216DAVISVP2,2013-08-23 15:16:00,
2013-08-23 11:21:00,73.5,68.7,30.15,ENE,75,1.0,4.0,85,0.00,,,0.00,WUHU216DAVISVP2,2013-08-23 15:21:00,
2013-08-23 11:26:00,73.9,68.8,30.15,ENE,61,1.0,4.0,84,0.00,,,0.00,WUHU216DAVISVP2,2013-08-23 15:26:00,
2013-08-23 11:31:00,74.3,69.5,30.14,NE,49,0.0,4.0,85,0.00,,,0.00,WUHU216DAVISVP2,2013-08-23 15:31:00,
2013-08-23 11:36:00,74.6,68.8,30.15,East,84,0.0,4.0,82,0.00,,,0.00,WUHU216DAVISVP2,2013-08-23 15:36:00,
2013-08-23 11:41:00,75.1,69.6,30.14,NNE,19,4.0,4.0,83,0.00,,,0.00,WUHU216DAVISVP2,2013-08-23 15:41:00,
2013-08-23 11:46:00,75.3,69.5,30.15,North,8,0.0,4.0,82,0.00,,,0.00,WUHU216DAVISVP2,2013-08-23 15:46:00,
2013-08-23 11:51:00,75.4,69.6,30.15,North,354,0.0,4.0,82,0.00,,,0.00,WUHU216DAVISVP2,2013-08-23 15:51:00,
2013-08-23 11:56:00,75.4,69.6,30.15,NNE,30,1.0,4.0,82,0.00,,,0.00,WUHU216DAVISVP2,2013-08-23 15:56:00,
2013-08-23 12:01:00,75.4,69.2,30.14,NNW,328,1.0,6.0,81,0.00,,,0.00,WUHU216DAVISVP2,2013-08-23 16:01:00,
2013-08-23 12:06:00,75.7,69.2,30.14,NE,37,1.0,6.0,80,0.00,,,0.00,WUHU216DAVISVP2,2013-08-23 16:06:00,
2013-08-23 12:11:00,75.9,68.7,30.14,NW,316,0.0,5.0,78,0.00,,,0.00,WUHU216DAVISVP2,2013-08-23 16:11:00,
2013-08-23 12:16:00,76.4,69.2,30.14,NNE,18,8.0,8.0,78,0.00,,,0.00,WUHU216DAVISVP2,2013-08-23 16:16:00,
2013-08-23 12:21:00,76.5,69.3,30.14,NE,40,3.0,8.0,78,0.00,,,0.00,WUHU216DAVISVP2,2013-08-23 16:21:00,
2013-08-23 12:26:00,76.7,68.3,30.14,ENE,65,2.0,8.0,75,0.00,,,0.00,WUHU216DAVISVP2,2013-08-23 16:26:00,
2013-08-23 12:31:00,76.9,68.9,30.14,ENE,61,2.0,8.0,76,0.00,,,0.00,WUHU216DAVISVP2,2013-08-23 16:31:00,
2013-08-23 12:36:00,76.9,68.9,30.14,NNE,24,3.0,8.0,76,0.00,,,0.00,WUHU216DAVISVP2,2013-08-23 16:36:00,
2013-08-23 12:41:00,76.3,68.0,30.14,NNE,27,1.0,8.0,75,0.00,,,0.00,WUHU216DAVISVP2,2013-08-23 16:41:00,
2013-08-23 12:46:00,76.5,67.0,30.14,NNE,26,5.0,8.0,72,0.00,,,0.00,WUHU216DAVISVP2,2013-08-23 16:46:00,
2013-08-23 12:51:00,77.2,68.4,30.14,ENE,67,4.0,8.0,74,0.00,,,0.00,WUHU216DAVISVP2,2013-08-23 16:51:00,
2013-08-23 12:56:00,77.4,67.5,30.14,ENE,64,2.0,8.0,71,0.00,,,0.00,WUHU216DAVISVP2,2013-08-23 16:56:00,
2013-08-23 13:01:00,77.7,68.1,30.14,NNE,25,5.0,10.0,72,0.00,,,0.00,WUHU216DAVISVP2,2013-08-23 17:01:00,
2013-08-23 13:06:00,78.0,68.0,30.14,NE,40,3.0,10.0,71,0.00,,,0.00,WUHU216DAVISVP2,2013-08-23 17:06:00,
2013-08-23 13:11:00,78.2,68.2,30.14,NNE,15,6.0,9.0,71,0.00,,,0.00,WUHU216DAVISVP2,2013-08-23 17:11:00,
2013-08-23 13:16:00,78.2,66.6,30.14,North,349,1.0,9.0,67,0.00,,,0.00,WUHU216DAVISVP2,2013-08-23 17:16:00,
2013-08-23 13:21:00,78.4,66.1,30.14,ENE,58,4.0,8.0,66,0.00,,,0.00,WUHU216DAVISVP2,2013-08-23 17:21:00,
2013-08-23 13:26:00,78.4,66.1,30.14,ENE,61,3.0,8.0,66,0.00,,,0.00,WUHU216DAVISVP2,2013-08-23 17:26:00,
2013-08-23 13:31:00,78.7,65.3,30.14,NE,52,0.0,8.0,63,0.00,,,0.00,WUHU216DAVISVP2,2013-08-23 17:31:00,
2013-08-23 13:36:00,78.8,66.0,30.14,NE,34,3.0,8.0,65,0.00,,,0.00,WUHU216DAVISVP2,2013-08-23 17:36:00,
2013-08-23 13:41:00,78.7,66.8,30.14,NE,42,2.0,8.0,67,0.00,,,0.00,WUHU216DAVISVP2,2013-08-23 17:41:00,
2013-08-23 13:46:00,79.0,67.1,30.14,NNE,33,5.0,9.0,67,0.00,,,0.00,WUHU216DAVISVP2,2013-08-23 17:46:00,
2013-08-23 13:51:00,79.0,66.7,30.14,NE,46,2.0,9.0,66,0.00,,,0.00,WUHU216DAVISVP2,2013-08-23 17:51:00,
2013-08-23 13:56:00,78.5,65.3,30.14,North,357,5.0,9.0,64,0.00,,,0.00,WUHU216DAVISVP2,2013-08-23 17:56:00,
2013-08-23 14:01:00,78.3,65.6,30.14,North,359,0.0,8.0,65,0.00,,,0.00,WUHU216DAVISVP2,2013-08-23 18:01:00,
2013-08-23 14:06:00,78.5,65.3,30.14,NNW,346,1.0,8.0,64,0.00,,,0.00,WUHU216DAVISVP2,2013-08-23 18:06:00,
2013-08-23 14:11:00,78.8,65.6,30.14,North,6,4.0,7.0,64,0.00,,,0.00,WUHU216DAVISVP2,2013-08-23 18:11:00,
2013-08-23 14:16:00,78.8,65.1,30.14,North,4,1.0,7.0,63,0.00,,,0.00,WUHU216DAVISVP2,2013-08-23 18:16:00,
2013-08-23 14:21:00,78.9,65.2,30.14,North,356,0.0,7.0,63,0.00,,,0.00,WUHU216DAVISVP2,2013-08-23 18:21:00,
2013-08-23 14:26:00,79.2,66.4,30.14,NNE,19,1.0,7.0,65,0.00,,,0.00,WUHU216DAVISVP2,2013-08-23 18:26:00,
2013-08-23 14:31:00,78.7,65.0,30.14,NE,54,4.0,7.0,63,0.00,,,0.00,WUHU216DAVISVP2,2013-08-23 18:31:00,
2013-08-23 14:36:00,78.8,66.3,30.14,NNE,22,4.0,7.0,65,0.00,,,0.00,WUHU216DAVISVP2,2013-08-23 18:36:00,
2013-08-23 14:41:00,79.1,65.2,30.14,NNE,22,6.0,7.0,62,0.00,,,0.00,WUHU216DAVISVP2,2013-08-23 18:41:00,
2013-08-23 14:46:00,79.2,65.8,30.13,East,79,1.0,7.0,63,0.00,,,0.00,WUHU216DAVISVP2,2013-08-23 18:46:00,
2013-08-23 14:51:00,79.6,65.7,30.13,North,8,1.0,7.0,62,0.00,,,0.00,WUHU216DAVISVP2,2013-08-23 18:51:00,
2013-08-23 14:56:00,79.3,64.9,30.13,NNE,18,1.0,7.0,61,0.00,,,0.00,WUHU216DAVISVP2,2013-08-23 18:56:00,
2013-08-23 15:01:00,79.2,66.2,30.13,North,349,5.0,7.0,64,0.00,,,0.00,WUHU216DAVISVP2,2013-08-23 19:01:00,
2013-08-23 15:06:00,79.3,64.9,30.13,NNE,30,1.0,11.0,61,0.00,,,0.00,WUHU216DAVISVP2,2013-08-23 19:06:00,
2013-08-23 15:11:00,79.7,65.3,30.13,ENE,75,1.0,11.0,61,0.00,,,0.00,WUHU216DAVISVP2,2013-08-23 19:11:00,
2013-08-23 15:16:00,80.0,64.6,30.13,ENE,74,0.0,10.0,59,0.00,,,0.00,WUHU216DAVISVP2,2013-08-23 19:16:00,
2013-08-23 15:21:00,80.4,66.4,30.13,NNE,33,4.0,6.0,62,0.00,,,0.00,WUHU216DAVISVP2,2013-08-23 19:21:00,
2013-08-23 15:26:00,79.4,65.5,30.13,NNE,32,4.0,6.0,62,0.00,,,0.00,WUHU216DAVISVP2,2013-08-23 19:26:00,
2013-08-23 15:31:00,78.4,65.4,30.13,ENE,58,0.0,6.0,64,0.00,,,0.00,WUHU216DAVISVP2,2013-08-23 19:31:00,
2013-08-23 15:36:00,78.2,64.8,30.12,NE,51,1.0,6.0,63,0.00,,,0.00,WUHU216DAVISVP2,2013-08-23 19:36:00,
2013-08-23 15:41:00,78.9,64.5,30.12,NE,43,2.0,5.0,61,0.00,,,0.00,WUHU216DAVISVP2,2013-08-23 19:41:00,
2013-08-23 15:46:00,79.4,64.5,30.12,NNE,27,1.0,5.0,60,0.00,,,0.00,WUHU216DAVISVP2,2013-08-23 19:46:00,
2013-08-23 15:51:00,79.2,65.3,30.12,NE,40,2.0,7.0,62,0.00,,,0.00,WUHU216DAVISVP2,2013-08-23 19:51:00,
2013-08-23 15:56:00,78.6,65.6,30.12,NNE,33,0.0,7.0,64,0.00,,,0.00,WUHU216DAVISVP2,2013-08-23 19:56:00,
2013-08-23 16:01:00,78.7,65.3,30.12,North,354,0.0,6.0,63,0.00,,,0.00,WUHU216DAVISVP2,2013-08-23 20:01:00,
2013-08-23 16:06:00,79.4,64.5,30.12,NE,44,0.0,6.0,60,0.00,,,0.00,WUHU216DAVISVP2,2013-08-23 20:06:00,
2013-08-23 16:11:00,79.6,63.7,30.12,ENE,57,2.0,8.0,58,0.00,,,0.00,WUHU216DAVISVP2,2013-08-23 20:11:00,
2013-08-23 16:16:00,79.3,64.2,30.12,ESE,105,0.0,8.0,60,0.00,,,0.00,WUHU216DAVISVP2,2013-08-23 20:16:00,
2013-08-23 16:21:00,79.3,63.7,30.12,NE,40,2.0,7.0,59,0.00,,,0.00,WUHU216DAVISVP2,2013-08-23 20:21:00,
2013-08-23 16:26:00,79.5,63.1,30.12,NE,46,0.0,7.0,57,0.00,,,0.00,WUHU216DAVISVP2,2013-08-23 20:26:00,
2013-08-23 16:31:00,80.1,63.7,30.11,NE,50,2.0,3.0,57,0.00,,,0.00,WUHU216DAVISVP2,2013-08-23 20:31:00,
2013-08-23 16:36:00,79.9,64.5,30.11,NNE,19,5.0,8.0,59,0.00,,,0.00,WUHU216DAVISVP2,2013-08-23 20:36:00,
2013-08-23 16:41:00,79.0,64.2,30.11,NE,40,0.0,8.0,60,0.00,,,0.00,WUHU216DAVISVP2,2013-08-23 20:41:00,
2013-08-23 16:46:00,79.3,64.9,30.11,NE,39,1.0,7.0,61,0.00,,,0.00,WUHU216DAVISVP2,2013-08-23 20:46:00,
2013-08-23 16:51:00,79.7,63.8,30.11,NE,43,0.0,7.0,58,0.00,,,0.00,WUHU216DAVISVP2,2013-08-23 20:51:00,
2013-08-23 16:56:00,79.9,63.0,30.11,North,351,0.0,5.0,56,0.00,,,0.00,WUHU216DAVISVP2,2013-08-23 20:56:00,
2013-08-23 17:01:00,80.0,62.6,30.11,NNW,343,0.0,5.0,55,0.00,,,0.00,WUHU216DAVISVP2,2013-08-23 21:01:00,
2013-08-23 17:06:00,79.9,64.5,30.11,NNE,18,4.0,7.0,59,0.00,,,0.00,WUHU216DAVISVP2,2013-08-23 21:06:00,
2013-08-23 17:11:00,79.8,62.9,30.11,NNW,338,0.0,7.0,56,0.00,,,0.00,WUHU216DAVISVP2,2013-08-23 21:11:00,
2013-08-23 17:16:00,80.0,61.9,30.11,NNE,12,0.0,6.0,54,0.00,,,0.00,WUHU216DAVISVP2,2013-08-23 21:16:00,
2013-08-23 17:21:00,80.1,62.7,30.11,NNW,337,1.0,6.0,55,0.00,,,0.00,WUHU216DAVISVP2,2013-08-23 21:21:00,
2013-08-23 17:26:00,79.9,61.9,30.11,North,359,3.0,5.0,54,0.00,,,0.00,WUHU216DAVISVP2,2013-08-23 21:26:00,
2013-08-23 17:31:00,79.8,62.4,30.11,North,356,1.0,5.0,55,0.00,,,0.00,WUHU216DAVISVP2,2013-08-23 21:31:00,
2013-08-23 17:36:00,79.7,61.6,30.11,North,5,6.0,9.0,54,0.00,,,0.00,WUHU216DAVISVP2,2013-08-23 21:36:00,
2013-08-23 17:41:00,79.8,63.4,30.11,North,6,3.0,9.0,57,0.00,,,0.00,WUHU216DAVISVP2,2013-08-23 21:41:00,
2013-08-23 17:46:00,79.6,61.7,30.11,NNE,24,0.0,8.0,54,0.00,,,0.00,WUHU216DAVISVP2,2013-08-23 21:46:00,
2013-08-23 17:51:00,79.7,63.1,30.11,North,4,1.0,8.0,57,0.00,,,0.00,WUHU216DAVISVP2,2013-08-23 21:51:00,
2013-08-23 17:56:00,79.7,61.6,30.11,NNE,21,0.0,5.0,54,0.00,,,0.00,WUHU216DAVISVP2,2013-08-23 21:56:00,
2013-08-23 18:01:00,79.6,62.2,30.11,North,4,4.0,6.0,55,0.00,,,0.00,WUHU216DAVISVP2,2013-08-23 22:01:00,
2013-08-23 18:06:00,79.4,63.0,30.11,NNW,346,6.0,6.0,57,0.00,,,0.00,WUHU216DAVISVP2,2013-08-23 22:06:00,
2013-08-23 18:11:00,79.2,63.1,30.11,North,5,3.0,6.0,58,0.00,,,0.00,WUHU216DAVISVP2,2013-08-23 22:11:00,
2013-08-23 18:16:00,79.1,63.1,30.11,NNE,20,1.0,6.0,58,0.00,,,0.00,WUHU216DAVISVP2,2013-08-23 22:16:00,
2013-08-23 18:21:00,78.9,61.0,30.11,NNE,33,1.0,6.0,54,0.00,,,0.00,WUHU216DAVISVP2,2013-08-23 22:21:00,
2013-08-23 18:26:00,78.8,62.0,30.11,NNE,19,2.0,6.0,56,0.00,,,0.00,WUHU216DAVISVP2,2013-08-23 22:26:00,
2013-08-23 18:31:00,78.7,61.2,30.11,NNE,12,1.0,5.0,55,0.00,,,0.00,WUHU216DAVISVP2,2013-08-23 22:31:00,
2013-08-23 18:36:00,78.6,61.1,30.11,North,350,1.0,5.0,55,0.00,,,0.00,WUHU216DAVISVP2,2013-08-23 22:36:00,
2013-08-23 18:41:00,78.5,62.2,30.11,NNE,19,2.0,5.0,57,0.00,,,0.00,WUHU216DAVISVP2,2013-08-23 22:41:00,
2013-08-23 18:46:00,78.5,62.7,30.11,NNE,12,1.0,4.0,58,0.00,,,0.00,WUHU216DAVISVP2,2013-08-23 22:46:00,
2013-08-23 18:51:00,78.3,61.3,30.11,North,359,1.0,4.0,56,0.00,,,0.00,WUHU216DAVISVP2,2013-08-23 22:51:00,
2013-08-23 18:56:00,78.0,61.5,30.11,NNE,15,1.0,4.0,57,0.00,,,0.00,WUHU216DAVISVP2,2013-08-23 22:56:00,
2013-08-23 19:01:00,77.8,61.3,30.11,North,359,0.0,4.0,57,0.00,,,0.00,WUHU216DAVISVP2,2013-08-23 23:01:00,
2013-08-23 19:06:00,77.6,60.7,30.11,North,5,1.0,4.0,56,0.00,,,0.00,WUHU216DAVISVP2,2013-08-23 23:06:00,
2013-08-23 19:11:00,77.6,61.2,30.11,North,352,0.0,4.0,57,0.00,,,0.00,WUHU216DAVISVP2,2013-08-23 23:11:00,
2013-08-23 19:16:00,77.3,61.4,30.11,NNW,333,0.0,3.0,58,0.00,,,0.00,WUHU216DAVISVP2,2013-08-23 23:16:00,
2013-08-23 19:21:00,77.0,62.3,30.11,North,350,0.0,3.0,60,0.00,,,0.00,WUHU216DAVISVP2,2013-08-23 23:21:00,
2013-08-23 19:26:00,76.8,61.9,30.11,North,9,1.0,3.0,60,0.00,,,0.00,WUHU216DAVISVP2,2013-08-23 23:26:00,
2013-08-23 19:31:00,76.5,63.0,30.11,North,4,0.0,3.0,63,0.00,,,0.00,WUHU216DAVISVP2,2013-08-23 23:31:00,
2013-08-23 19:36:00,76.1,63.0,30.11,NNE,18,0.0,2.0,64,0.00,,,0.00,WUHU216DAVISVP2,2013-08-23 23:36:00,
2013-08-23 19:41:00,75.7,63.8,30.11,North,1,0.0,2.0,66,0.00,,,0.00,WUHU216DAVISVP2,2013-08-23 23:41:00,
2013-08-23 19:46:00,75.2,63.1,30.11,North,356,0.0,2.0,66,0.00,,,0.00,WUHU216DAVISVP2,2013-08-23 23:46:00,
2013-08-23 19:51:00,74.6,62.5,30.11,NNE,18,0.0,1.0,66,0.00,,,0.00,WUHU216DAVISVP2,2013-08-23 23:51:00,
2013-08-23 19:56:00,74.1,62.4,30.12,North,9,0.0,1.0,67,0.00,,,0.00,WUHU216DAVISVP2,2013-08-23 23:56:00,
2013-08-23 20:01:00,73.7,62.5,30.12,North,5,0.0,1.0,68,0.00,,,0.00,WUHU216DAVISVP2,2013-08-24 00:01:00,
2013-08-23 20:06:00,73.2,62.4,30.12,North,5,0.0,1.0,69,0.00,,,0.00,WUHU216DAVISVP2,2013-08-24 00:06:00,
2013-08-23 20:11:00,72.9,61.7,30.12,NNE,15,0.0,1.0,68,0.00,,,0.00,WUHU216DAVISVP2,2013-08-24 00:11:00,
2013-08-23 20:16:00,72.4,61.7,30.12,NNE,15,0.0,1.0,69,0.00,,,0.00,WUHU216DAVISVP2,2013-08-24 00:16:00,
2013-08-23 20:21:00,71.9,60.8,30.13,North,360,0.0,1.0,68,0.00,,,0.00,WUHU216DAVISVP2,2013-08-24 00:21:00,
2013-08-23 20:26:00,71.4,61.1,30.13,North,359,0.0,1.0,70,0.00,,,0.00,WUHU216DAVISVP2,2013-08-24 00:26:00,
2013-08-23 20:31:00,70.7,60.4,30.13,North,350,0.0,0.0,70,0.00,,,0.00,WUHU216DAVISVP2,2013-08-24 00:31:00,
2013-08-23 20:36:00,70.2,60.0,30.13,NNW,328,0.0,0.0,70,0.00,,,0.00,WUHU216DAVISVP2,2013-08-24 00:36:00,
2013-08-23 20:41:00,69.9,60.1,30.13,NNW,330,0.0,0.0,71,0.00,,,0.00,WUHU216DAVISVP2,2013-08-24 00:41:00,
2013-08-23 20:46:00,69.5,60.1,30.13,NNW,330,0.0,0.0,72,0.00,,,0.00,WUHU216DAVISVP2,2013-08-24 00:46:00,
2013-08-23 20:51:00,68.8,60.2,30.13,NNW,330,0.0,0.0,74,0.00,,,0.00,WUHU216DAVISVP2,2013-08-24 00:51:00,
2013-08-23 20:56:00,68.1,61.0,30.13,NNW,333,0.0,0.0,78,0.00,,,0.00,WUHU216DAVISVP2,2013-08-24 00:56:00,
2013-08-23 21:01:00,67.2,60.5,30.14,NNW,333,0.0,0.0,79,0.00,,,0.00,WUHU216DAVISVP2,2013-08-24 01:01:00,
2013-08-23 21:06:00,66.2,59.8,30.14,NNW,333,0.0,0.0,80,0.00,,,0.00,WUHU216DAVISVP2,2013-08-24 01:06:00,
2013-08-23 21:11:00,65.3,59.3,30.14,NNW,333,0.0,0.0,81,0.00,,,0.00,WUHU216DAVISVP2,2013-08-24 01:11:00,
2013-08-23 21:16:00,64.5,59.6,30.15,NNW,333,0.0,0.0,84,0.00,,,0.00,WUHU216DAVISVP2,2013-08-24 01:16:00,
2013-08-23 21:21:00,64.1,59.5,30.15,NNW,333,0.0,0.0,85,0.00,,,0.00,WUHU216DAVISVP2,2013-08-24 01:21:00,
2013-08-23 21:26:00,63.5,59.2,30.15,NNW,333,0.0,0.0,86,0.00,,,0.00,WUHU216DAVISVP2,2013-08-24 01:26:00,
2013-08-23 21:31:00,63.2,59.6,30.15,NNW,333,0.0,0.0,88,0.00,,,0.00,WUHU216DAVISVP2,2013-08-24 01:31:00,
2013-08-23 21:36:00,62.8,59.2,30.15,NNW,333,0.0,0.0,88,0.00,,,0.00,WUHU216DAVISVP2,2013-08-24 01:36:00,
2013-08-23 21:41:00,62.3,59.0,30.16,NNW,333,0.0,0.0,89,0.00,,,0.00,WUHU216DAVISVP2,2013-08-24 01:41:00,
2013-08-23 21:46:00,61.8,58.5,30.16,NNW,333,0.0,0.0,89,0.00,,,0.00,WUHU216DAVISVP2,2013-08-24 01:46:00,
2013-08-23 21:51:00,61.3,58.0,30.16,NNW,333,0.0,0.0,89,0.00,,,0.00,WUHU216DAVISVP2,2013-08-24 01:51:00,
2013-08-23 21:56:00,60.9,57.6,30.16,NNW,333,0.0,0.0,89,0.00,,,0.00,WUHU216DAVISVP2,2013-08-24 01:56:00,
2013-08-23 22:01:00,60.7,58.0,30.16,NNW,333,0.0,0.0,91,0.00,,,0.00,WUHU216DAVISVP2,2013-08-24 02:01:00,
2013-08-23 22:06:00,60.7,58.3,30.16,NNW,333,0.0,0.0,92,0.00,,,0.00,WUHU216DAVISVP2,2013-08-24 02:06:00,
2013-08-23 22:11:00,60.5,58.1,30.17,NNW,333,0.0,0.0,92,0.00,,,0.00,WUHU216DAVISVP2,2013-08-24 02:11:00,
2013-08-23 22:16:00,60.3,57.9,30.17,NNW,333,0.0,0.0,92,0.00,,,0.00,WUHU216DAVISVP2,2013-08-24 02:16:00,
2013-08-23 22:21:00,60.1,58.0,30.17,NNW,333,0.0,0.0,93,0.00,,,0.00,WUHU216DAVISVP2,2013-08-24 02:21:00,
2013-08-23 22:26:00,60.0,57.9,30.17,NNW,333,0.0,0.0,93,0.00,,,0.00,WUHU216DAVISVP2,2013-08-24 02:26:00,
2013-08-23 22:31:00,59.8,57.7,30.17,NNW,333,0.0,0.0,93,0.00,,,0.00,WUHU216DAVISVP2,2013-08-24 02:31:00,
2013-08-23 22:36:00,59.6,57.5,30.17,NNW,333,0.0,0.0,93,0.00,,,0.00,WUHU216DAVISVP2,2013-08-24 02:36:00,
2013-08-23 22:41:00,59.7,57.9,30.17,NNW,333,0.0,0.0,94,0.00,,,0.00,WUHU216DAVISVP2,2013-08-24 02:41:00,
2013-08-23 22:46:00,59.6,57.8,30.17,NNW,333,0.0,0.0,94,0.00,,,0.00,WUHU216DAVISVP2,2013-08-24 02:46:00,
2013-08-23 22:51:00,59.4,57.3,30.17,NNW,333,0.0,0.0,93,0.00,,,0.00,WUHU216DAVISVP2,2013-08-24 02:51:00,
2013-08-23 22:56:00,59.3,57.5,30.17,NNW,333,0.0,0.0,94,0.00,,,0.00,WUHU216DAVISVP2,2013-08-24 02:56:00,
2013-08-23 23:01:00,59.4,57.6,30.17,NNW,333,0.0,0.0,94,0.00,,,0.00,WUHU216DAVISVP2,2013-08-24 03:01:00,
2013-08-23 23:06:00,59.3,57.5,30.17,NNW,333,0.0,0.0,94,0.00,,,0.00,WUHU216DAVISVP2,2013-08-24 03:06:00,
2013-08-23 23:11:00,59.2,57.4,30.17,NNW,333,0.0,0.0,94,0.00,,,0.00,WUHU216DAVISVP2,2013-08-24 03:11:00,
2013-08-23 23:16:00,59.3,57.8,30.17,NNW,333,0.0,0.0,95,0.00,,,0.00,WUHU216DAVISVP2,2013-08-24 03:16:00,
2013-08-23 23:21:00,59.3,57.8,30.17,NNW,333,0.0,0.0,95,0.00,,,0.00,WUHU216DAVISVP2,2013-08-24 03:21:00,
2013-08-23 23:26:00,59.2,57.7,30.17,NNW,333,0.0,0.0,95,0.00,,,0.00,WUHU216DAVISVP2,2013-08-24 03:26:00,
2013-08-23 23:31:00,59.0,57.2,30.17,NNW,333,0.0,0.0,94,0.00,,,0.00,WUHU216DAVISVP2,2013-08-24 03:31:00,
2013-08-23 23:36:00,58.9,57.1,30.17,NNW,333,0.0,0.0,94,0.00,,,0.00,WUHU216DAVISVP2,2013-08-24 03:36:00,
2013-08-23 23:41:00,58.8,57.3,30.17,NNW,333,0.0,0.0,95,0.00,,,0.00,WUHU216DAVISVP2,2013-08-24 03:41:00,
2013-08-23 23:46:00,58.7,56.9,30.17,NNW,333,0.0,0.0,94,0.00,,,0.00,WUHU216DAVISVP2,2013-08-24 03:46:00,
2013-08-23 23:51:00,58.4,56.6,30.17,NNW,333,0.0,0.0,94,0.00,,,0.00,WUHU216DAVISVP2,2013-08-24 03:51:00,
2013-08-23 23:56:00,58.4,56.9,30.17,NNW,333,0.0,0.0,95,0.00,,,0.00,WUHU216DAVISVP2,2013-08-24 03:56:00,